Location: Leuk
(46.3174°N, 7.6341°E)
Time: 18:24:26
(UTC+00:00)

Cosmos 1328 Rocket - Pass Details

Date: 09 March 2021
Orbit: 602 x 626 km, 82.5° (Epoch: 15 April)

Event Time Altitude Azimuth Distance (km) Brightness Sun altitude
Rises 04:17:54 0° 179° (S) 2,841 6.8 -17.3°
Reaches altitude 10° 04:20:07 10° 176° (S) 1,942 6.0 -16.9°
Maximum altitude 04:24:21 63° 96° (E) 675 4.0 -16.2°
Drops below altitude 10° 04:28:39 10° 15° (NNE) 1,963 6.4 -15.5°
Sets 04:30:53 0° 12° (NNE) 2,874 7.3 -15.1°
